| time (UTC) | temp F | wind direction | speed MPH | gust MPH | rain 1hr in | rain 24hr in | rain mn in | humidity % | barometer mb |
| 20260507044004 | 31 | 56 | 0.0 | 2.0 | 0.00 | 0.00 | 0.00 | 84 | 1014.5 |
| 20260507043503 | 32 | 55 | 1.0 | 2.0 | 0.00 | 0.00 | 0.00 | 81 | 1014.5 |
| 20260507043214 | 31 | 54 | 1.0 | 2.0 | 0.00 | 0.00 | 0.00 | 83 | 1014.4 |
| 20260507042503 | 32 | 33 | 1.0 | 3.0 | 0.00 | 0.00 | 0.00 | 81 | 1014.5 |
| 20260507042214 | 32 | 30 | 1.0 | 3.0 | 0.00 | 0.00 | 0.00 | 82 | 1014.7 |
| 20260507041503 | 31 | 32 | 1.0 | 3.0 | 0.00 | 0.00 | 0.00 | 83 | 1014.5 |
| 20260507041003 | 32 | 47 | 1.0 | 3.0 | 0.00 | 0.00 | 0.00 | 81 | 1014.5 |
| 20260507040503 | 32 | 42 | 0.0 | 2.0 | 0.00 | 0.00 | 0.00 | 81 | 1014.6 |
| 20260507040003 | 31 | 19 | 0.0 | 2.0 | 0.00 | 0.00 | 0.00 | 82 | 1014.5 |
| 20260507035713 | 31 | 36 | 0.0 | 2.0 | 0.00 | 0.00 | 0.00 | 84 | 1014.5 |
| 20260507035003 | 30 | 42 | 1.0 | 2.0 | 0.00 | 0.00 | 0.00 | 85 | 1014.4 |
| 20260507034503 | 30 | 37 | 1.0 | 2.0 | 0.00 | 0.00 | 0.00 | 83 | 1014.3 |
| 20260507034003 | 29 | 48 | 0.0 | 2.0 | 0.00 | 0.00 | 0.00 | 88 | 1014.3 |
| 20260507033503 | 28 | 55 | 1.0 | 2.0 | 0.00 | 0.00 | 0.00 | 92 | 1014.3 |
| 20260507033003 | 29 | 50 | 1.0 | 2.0 | 0.00 | 0.00 | 0.00 | 86 | 1014.2 |
| 20260507032503 | 29 | 53 | 0.0 | 2.0 | 0.00 | 0.00 | 0.00 | 89 | 1014.3 |
| 20260507032003 | 29 | 42 | 1.0 | 2.0 | 0.00 | 0.00 | 0.00 | 86 | 1014.2 |
| 20260507031503 | 29 | 37 | 1.0 | 2.0 | 0.00 | 0.00 | 0.00 | 87 | 1014.1 |
| 20260507031003 | 29 | 39 | 1.0 | 2.0 | 0.00 | 0.00 | 0.00 | 87 | 1014.1 |
| 20260507030503 | 29 | 34 | 1.0 | 3.0 | 0.00 | 0.00 | 0.00 | 86 | 1014.1 |
| 20260507030003 | 29 | 30 | 2.0 | 3.0 | 0.00 | 0.00 | 0.00 | 85 | 1014.1 |
| 20260507025712 | 30 | 29 | 1.0 | 3.0 | 0.00 | 0.00 | 0.00 | 85 | 1014.0 |
| 20260507025003 | 29 | 45 | 1.0 | 3.0 | 0.00 | 0.00 | 0.00 | 88 | 1013.9 |
| 20260507024503 | 29 | 41 | 1.0 | 3.0 | 0.00 | 0.00 | 0.00 | 86 | 1014.1 |
| 20260507024003 | 29 | 32 | 1.0 | 3.0 | 0.00 | 0.00 | 0.00 | 87 | 1013.8 |
| 20260507023503 | 29 | 37 | 1.0 | 2.0 | 0.00 | 0.00 | 0.00 | 87 | 1014.0 |
| 20260507023003 | 30 | 37 | 1.0 | 2.0 | 0.00 | 0.00 | 0.00 | 87 | 1013.9 |
| 20260507022503 | 30 | 32 | 1.0 | 2.0 | 0.00 | 0.00 | 0.00 | 86 | 1014.0 |
| 20260507022003 | 30 | 39 | 1.0 | 2.0 | 0.00 | 0.00 | 0.00 | 85 | 1013.8 |
| 20260507021503 | 30 | 35 | 0.0 | 2.0 | 0.00 | 0.00 | 0.00 | 87 | 1013.9 |
| 20260507021003 | 30 | 25 | 1.0 | 2.0 | 0.00 | 0.00 | 0.00 | 86 | 1014.0 |
| 20260507020503 | 30 | 42 | 1.0 | 2.0 | 0.00 | 0.00 | 0.00 | 86 | 1013.7 |
| 20260507020003 | 29 | 51 | 1.0 | 2.0 | 0.00 | 0.00 | 0.00 | 87 | 1013.8 |
| 20260507015503 | 30 | 34 | 1.0 | 3.0 | 0.00 | 0.00 | 0.00 | 85 | 1013.9 |
| 20260507015003 | 31 | 26 | 2.0 | 3.0 | 0.00 | 0.00 | 0.00 | 84 | 1013.9 |
| 20260507014503 | 31 | 26 | 1.0 | 2.0 | 0.00 | 0.00 | 0.00 | 86 | 1013.6 |
| 20260507014003 | 31 | 30 | 2.0 | 2.0 | 0.00 | 0.00 | 0.00 | 85 | 1013.6 |
| 20260507013503 | 31 | 26 | 1.0 | 2.0 | 0.00 | 0.00 | 0.00 | 84 | 1013.6 |
| 20260507013004 | 31 | 46 | 0.0 | 2.0 | 0.00 | 0.00 | 0.00 | 83 | 1013.6 |
| 20260507012503 | 31 | 150 | 0.0 | 1.0 | 0.00 | 0.00 | 0.00 | 85 | 1013.7 |
| 20260507012003 | 30 | 62 | 0.0 | 2.0 | 0.00 | 0.00 | 0.00 | 87 | 1013.5 |
| 20260507011503 | 31 | 46 | 1.0 | 2.0 | 0.00 | 0.00 | 0.00 | 86 | 1013.4 |
| 20260507011003 | 31 | 35 | 1.0 | 2.0 | 0.00 | 0.00 | 0.00 | 84 | 1013.6 |
| 20260507010503 | 32 | 36 | 1.0 | 2.0 | 0.00 | 0.00 | 0.00 | 84 | 1013.5 |
| 20260507010003 | 31 | 44 | 1.0 | 2.0 | 0.00 | 0.00 | 0.00 | 86 | 1013.4 |
| 20260507005503 | 31 | 53 | 0.0 | 2.0 | 0.00 | 0.00 | 0.00 | 84 | 1013.5 |
| 20260507005003 | 32 | 28 | 0.0 | 2.0 | 0.00 | 0.00 | 0.00 | 83 | 1013.2 |
| 20260507004503 | 31 | 6 | 1.0 | 3.0 | 0.00 | 0.00 | 0.00 | 85 | 1013.2 |
| 20260507004003 | 32 | 23 | 1.0 | 3.0 | 0.00 | 0.00 | 0.00 | 83 | 1013.4 |
| 20260507003503 | 32 | 39 | 1.0 | 2.0 | 0.00 | 0.00 | 0.00 | 83 | 1013.3 |
| 20260507003212 | 33 | 37 | 1.0 | 3.0 | 0.00 | 0.00 | 0.00 | 83 | 1013.4 |
| 20260507002503 | 33 | 39 | 1.0 | 3.0 | 0.00 | 0.00 | 0.00 | 82 | 1013.3 |
| 20260507002003 | 33 | 33 | 1.0 | 3.0 | 0.00 | 0.00 | 0.00 | 82 | 1013.4 |
| 20260507001503 | 33 | 45 | 1.0 | 3.0 | 0.00 | 0.00 | 0.00 | 82 | 1013.3 |
| 20260507001004 | 33 | 43 | 1.0 | 3.0 | 0.00 | 0.00 | 0.00 | 81 | 1013.2 |
| 20260507000503 | 33 | 41 | 1.0 | 3.0 | 0.00 | 0.00 | 0.00 | 81 | 1013.4 |
| 20260507000003 | 33 | 57 | 1.0 | 2.0 | 0.00 | 0.00 | 0.00 | 79 | 1013.2 |
| 20260506235713 | 34 | 46 | 1.0 | 2.0 | 0.00 | 0.00 | 0.00 | 79 | 1013.2 |
| 20260506235003 | 33 | 20 | 0.0 | 2.0 | 0.00 | 0.00 | 0.00 | 81 | 1013.2 |
| 20260506234503 | 33 | 48 | 1.0 | 3.0 | 0.00 | 0.00 | 0.00 | 84 | 1013.0 |
| 20260506234212 | 34 | 52 | 1.0 | 3.0 | 0.00 | 0.00 | 0.00 | 78 | 1013.0 |
| 20260506233713 | 35 | 56 | 1.0 | 3.0 | 0.00 | 0.00 | 0.00 | 77 | 1013.2 |
| 20260506233003 | 35 | 38 | 0.0 | 1.0 | 0.00 | 0.00 | 0.00 | 79 | 1013.2 |
| 20260506232503 | 35 | 21 | 0.0 | 2.0 | 0.00 | 0.00 | 0.00 | 77 | 1013.1 |
| 20260506232003 | 35 | 21 | 1.0 | 2.0 | 0.00 | 0.00 | 0.00 | 78 | 1012.8 |
| 20260506231503 | 35 | 25 | 1.0 | 2.0 | 0.00 | 0.00 | 0.00 | 77 | 1013.0 |
| 20260506231003 | 34 | 52 | 0.0 | 2.0 | 0.00 | 0.00 | 0.00 | 79 | 1012.9 |
| 20260506230503 | 35 | 60 | 1.0 | 2.0 | 0.00 | 0.00 | 0.00 | 77 | 1012.9 |
| 20260506230003 | 35 | 57 | 0.0 | 2.0 | 0.00 | 0.00 | 0.00 | 74 | 1013.0 |
| 20260506225503 | 35 | 43 | 1.0 | 3.0 | 0.00 | 0.00 | 0.00 | 76 | 1012.7 |
| 20260506225003 | 36 | 37 | 2.0 | 3.0 | 0.00 | 0.00 | 0.00 | 73 | 1012.7 |
| 20260506224503 | 37 | 34 | 1.0 | 3.0 | 0.00 | 0.00 | 0.00 | 72 | 1012.6 |
| 20260506224003 | 37 | 31 | 1.0 | 3.0 | 0.00 | 0.00 | 0.00 | 74 | 1012.6 |
| 20260506223503 | 37 | 25 | 2.0 | 3.0 | 0.00 | 0.00 | 0.00 | 74 | 1012.6 |
| 20260506223003 | 37 | 23 | 1.0 | 3.0 | 0.00 | 0.00 | 0.00 | 73 | 1012.6 |
| 20260506222713 | 37 | 21 | 1.0 | 3.0 | 0.00 | 0.00 | 0.00 | 73 | 1012.4 |
| 20260506222003 | 37 | 220 | 0.0 | 1.0 | 0.00 | 0.00 | 0.00 | 71 | 1012.5 |
| 20260506221504 | 38 | 189 | 0.0 | 2.0 | 0.00 | 0.00 | 0.00 | 70 | 1012.5 |
| 20260506221003 | 38 | 160 | 0.0 | 2.0 | 0.00 | 0.00 | 0.00 | 68 | 1012.4 |
| 20260506220503 | 38 | 49 | 1.0 | 3.0 | 0.00 | 0.00 | 0.00 | 68 | 1012.4 |
| 20260506220004 | 38 | 40 | 1.0 | 3.0 | 0.00 | 0.00 | 0.00 | 67 | 1012.2 |
| 20260506215503 | 39 | 51 | 1.0 | 3.0 | 0.00 | 0.00 | 0.00 | 66 | 1012.3 |
| 20260506215003 | 40 | 38 | 1.0 | 3.0 | 0.00 | 0.00 | 0.00 | 66 | 1012.2 |
| 20260506214503 | 40 | 28 | 2.0 | 3.0 | 0.00 | 0.00 | 0.00 | 66 | 1012.3 |
| 20260506214003 | 40 | 31 | 1.0 | 3.0 | 0.00 | 0.00 | 0.00 | 65 | 1012.3 |
| 20260506213503 | 41 | 47 | 1.0 | 2.0 | 0.00 | 0.00 | 0.00 | 63 | 1012.1 |
| 20260506213003 | 42 | 54 | 1.0 | 2.0 | 0.00 | 0.00 | 0.00 | 62 | 1012.2 |
| 20260506212712 | 42 | 52 | 1.0 | 2.0 | 0.00 | 0.00 | 0.00 | 61 | 1012.3 |
| 20260506212003 | 43 | 53 | 0.0 | 2.0 | 0.00 | 0.00 | 0.00 | 57 | 1012.1 |
| 20260506211503 | 43 | 77 | 0.0 | 2.0 | 0.00 | 0.00 | 0.00 | 54 | 1012.1 |
| 20260506211003 | 44 | 120 | 0.0 | 1.0 | 0.00 | 0.00 | 0.00 | 52 | 1012.0 |
| 20260506210503 | 44 | 142 | 0.0 | 1.0 | 0.00 | 0.00 | 0.00 | 51 | 1011.9 |
| 20260506210003 | 45 | 187 | 0.0 | 2.0 | 0.00 | 0.00 | 0.00 | 51 | 1012.0 |
| 20260506205503 | 45 | 188 | 1.0 | 2.0 | 0.00 | 0.00 | 0.00 | 52 | 1011.9 |
| 20260506205003 | 46 | 193 | 0.0 | 2.0 | 0.00 | 0.00 | 0.00 | 50 | 1011.9 |
| 20260506204503 | 47 | 219 | 0.0 | 3.0 | 0.00 | 0.00 | 0.00 | 47 | 1011.9 |
| 20260506204003 | 47 | 250 | 1.0 | 4.0 | 0.00 | 0.00 | 0.00 | 46 | 1011.9 |
| 20260506203503 | 47 | 253 | 1.0 | 4.0 | 0.00 | 0.00 | 0.00 | 46 | 1011.9 |
| 20260506203003 | 47 | 217 | 0.0 | 3.0 | 0.00 | 0.00 | 0.00 | 47 | 1011.7 |
| 20260506202503 | 47 | 201 | 0.0 | 2.0 | 0.00 | 0.00 | 0.00 | 48 | 1011.8 |
| 20260506202213 | 47 | 203 | 0.0 | 2.0 | 0.00 | 0.00 | 0.00 | 48 | 1011.7 |
| 20260506201714 | 47 | 212 | 0.0 | 2.0 | 0.00 | 0.00 | 0.00 | 47 | 1011.7 |
| 20260506201213 | 48 | 216 | 0.0 | 2.0 | 0.00 | 0.00 | 0.00 | 46 | 1011.7 |
| 20260506200503 | 48 | 220 | 0.0 | 1.0 | 0.00 | 0.00 | 0.00 | 47 | 1011.7 |
| 20260506200003 | 49 | 205 | 0.0 | 2.0 | 0.00 | 0.00 | 0.00 | 47 | 1011.6 |
| 20260506195714 | 49 | 192 | 0.0 | 2.0 | 0.00 | 0.00 | 0.00 | 47 | 1011.6 |
| 20260506195003 | 50 | 177 | 0.0 | 2.0 | 0.00 | 0.00 | 0.00 | 47 | 1011.7 |
| 20260506194503 | 50 | 169 | 1.0 | 3.0 | 0.00 | 0.00 | 0.00 | 46 | 1011.7 |
| 20260506194003 | 50 | 165 | 2.0 | 3.0 | 0.00 | 0.00 | 0.00 | 45 | 1011.5 |
| 20260506193503 | 51 | 178 | 1.0 | 4.0 | 0.00 | 0.00 | 0.00 | 47 | 1011.7 |
| 20260506193003 | 51 | 182 | 1.0 | 4.0 | 0.00 | 0.00 | 0.00 | 43 | 1011.6 |
| 20260506192714 | 51 | 178 | 1.0 | 4.0 | 0.00 | 0.00 | 0.00 | 41 | 1011.5 |
| 20260506192003 | 51 | 195 | 1.0 | 3.0 | 0.00 | 0.00 | 0.00 | 42 | 1011.5 |
| 20260506191503 | 51 | 212 | 1.0 | 3.0 | 0.00 | 0.00 | 0.00 | 43 | 1011.3 |
| 20260506191003 | 51 | 223 | 1.0 | 4.0 | 0.00 | 0.00 | 0.00 | 45 | 1011.4 |
| 20260506190503 | 51 | 195 | 2.0 | 6.0 | 0.00 | 0.00 | 0.00 | 50 | 1011.3 |
| 20260506190004 | 51 | 178 | 3.0 | 7.0 | 0.00 | 0.00 | 0.00 | 48 | 1011.3 |
| 20260506185503 | 51 | 186 | 2.0 | 7.0 | 0.00 | 0.00 | 0.00 | 54 | 1011.2 |
| 20260506185212 | 51 | 201 | 2.0 | 7.0 | 0.00 | 0.00 | 0.00 | 54 | 1011.1 |
| 20260506184503 | 51 | 199 | 3.0 | 7.0 | 0.00 | 0.00 | 0.00 | 54 | 1011.2 |
| 20260506184003 | 51 | 175 | 3.0 | 6.0 | 0.00 | 0.00 | 0.00 | 53 | 1011.0 |
| 20260506183503 | 51 | 165 | 4.0 | 7.0 | 0.00 | 0.00 | 0.00 | 52 | 1011.1 |
| 20260506183003 | 51 | 161 | 4.0 | 8.0 | 0.00 | 0.00 | 0.00 | 52 | 1010.9 |
| 20260506182503 | 52 | 162 | 3.0 | 8.0 | 0.00 | 0.00 | 0.00 | 52 | 1011.0 |
| 20260506182003 | 52 | 180 | 3.0 | 6.0 | 0.00 | 0.00 | 0.00 | 51 | 1010.8 |
| 20260506181713 | 52 | 179 | 3.0 | 5.0 | 0.00 | 0.00 | 0.00 | 51 | 1010.9 |
| 20260506181003 | 52 | 180 | 3.0 | 6.0 | 0.00 | 0.00 | 0.00 | 50 | 1010.9 |
| 20260506180713 | 52 | 167 | 4.0 | 10.0 | 0.00 | 0.00 | 0.00 | 50 | 1010.9 |
| 20260506180004 | 52 | 172 | 5.0 | 10.0 | 0.00 | 0.00 | 0.00 | 48 | 1010.8 |
| 20260506175503 | 53 | 185 | 4.0 | 8.0 | 0.00 | 0.00 | 0.00 | 47 | 1010.7 |
| 20260506175003 | 53 | 178 | 4.0 | 10.0 | 0.00 | 0.00 | 0.00 | 46 | 1010.7 |
| 20260506174503 | 53 | 179 | 5.0 | 10.0 | 0.00 | 0.00 | 0.00 | 45 | 1010.8 |
| 20260506174003 | 53 | 180 | 5.0 | 10.0 | 0.00 | 0.00 | 0.00 | 43 | 1010.6 |
| 20260506173503 | 53 | 174 | 4.0 | 10.0 | 0.00 | 0.00 | 0.00 | 42 | 1010.6 |
| 20260506173003 | 53 | 170 | 4.0 | 9.0 | 0.00 | 0.00 | 0.00 | 40 | 1010.7 |
| 20260506172503 | 54 | 165 | 3.0 | 9.0 | 0.00 | 0.00 | 0.00 | 39 | 1010.5 |
| 20260506172003 | 54 | 160 | 2.0 | 4.0 | 0.00 | 0.00 | 0.00 | 36 | 1010.5 |
| 20260506171503 | 54 | 165 | 2.0 | 4.0 | 0.00 | 0.00 | 0.00 | 36 | 1010.5 |
| 20260506171003 | 54 | 144 | 2.0 | 4.0 | 0.00 | 0.00 | 0.00 | 36 | 1010.7 |
| 20260506170503 | 54 | 137 | 2.0 | 4.0 | 0.00 | 0.00 | 0.00 | 35 | 1010.7 |
| 20260506170003 | 54 | 159 | 2.0 | 4.0 | 0.00 | 0.00 | 0.00 | 34 | 1010.5 |
| 20260506165503 | 54 | 166 | 2.0 | 6.0 | 0.00 | 0.00 | 0.00 | 34 | 1010.5 |
| 20260506165003 | 54 | 179 | 2.0 | 6.0 | 0.00 | 0.00 | 0.00 | 34 | 1010.2 |
| 20260506164503 | 55 | 177 | 3.0 | 5.0 | 0.00 | 0.00 | 0.00 | 34 | 1010.3 |
| 20260506164003 | 55 | 178 | 3.0 | 5.0 | 0.00 | 0.00 | 0.00 | 33 | 1010.5 |
| 20260506163503 | 55 | 176 | 3.0 | 8.0 | 0.00 | 0.00 | 0.00 | 33 | 1010.5 |
| 20260506163003 | 55 | 172 | 4.0 | 8.0 | 0.00 | 0.00 | 0.00 | 32 | 1010.3 |
| 20260506162503 | 56 | 151 | 4.0 | 8.0 | 0.00 | 0.00 | 0.00 | 31 | 1010.5 |
| 20260506162213 | 56 | 146 | 3.0 | 8.0 | 0.00 | 0.00 | 0.00 | 31 | 1010.3 |
| 20260506161503 | 56 | 162 | 5.0 | 13.0 | 0.00 | 0.00 | 0.00 | 31 | 1010.5 |
| 20260506161003 | 56 | 152 | 4.0 | 13.0 | 0.00 | 0.00 | 0.00 | 31 | 1010.5 |
| 20260506160503 | 57 | 136 | 4.0 | 11.0 | 0.00 | 0.00 | 0.00 | 31 | 1010.3 |
| 20260506160003 | 56 | 138 | 5.0 | 12.0 | 0.00 | 0.00 | 0.00 | 30 | 1010.6 |
| 20260506155712 | 57 | 141 | 6.0 | 12.0 | 0.00 | 0.00 | 0.00 | 30 | 1010.2 |
| 20260506155003 | 57 | 160 | 6.0 | 10.0 | 0.00 | 0.00 | 0.00 | 29 | 1010.2 |
| 20260506154503 | 58 | 179 | 4.0 | 8.0 | 0.00 | 0.00 | 0.00 | 28 | 1010.6 |
| 20260506154003 | 58 | 196 | 4.0 | 8.0 | 0.00 | 0.00 | 0.00 | 28 | 1010.5 |
| 20260506153503 | 58 | 197 | 3.0 | 8.0 | 0.00 | 0.00 | 0.00 | 27 | 1010.6 |
| 20260506153003 | 57 | 134 | 2.0 | 5.0 | 0.00 | 0.00 | 0.00 | 28 | 1010.5 |
| 20260506152503 | 56 | 51 | 1.0 | 5.0 | 0.00 | 0.00 | 0.00 | 26 | 1010.6 |
| 20260506152213 | 56 | 300 | 1.0 | 5.0 | 0.00 | 0.00 | 0.00 | 27 | 1010.8 |
| 20260506151714 | 56 | 210 | 2.0 | 6.0 | 0.00 | 0.00 | 0.00 | 25 | 1010.5 |
| 20260506151003 | 56 | 189 | 3.0 | 6.0 | 0.00 | 0.00 | 0.00 | 26 | 1010.3 |
| 20260506150503 | 55 | 180 | 3.0 | 6.0 | 0.00 | 0.00 | 0.00 | 29 | 1010.7 |
| 20260506150003 | 55 | 173 | 3.0 | 4.0 | 0.00 | 0.00 | 0.00 | 30 | 1010.5 |
| 20260506145503 | 55 | 183 | 2.0 | 4.0 | 0.00 | 0.00 | 0.00 | 29 | 1010.5 |
| 20260506145003 | 55 | 203 | 2.0 | 4.0 | 0.00 | 0.00 | 0.00 | 29 | 1010.7 |
| 20260506144503 | 56 | 198 | 2.0 | 3.0 | 0.00 | 0.00 | 0.00 | 27 | 1010.7 |
| 20260506144003 | 56 | 169 | 2.0 | 4.0 | 0.00 | 0.00 | 0.00 | 27 | 1010.6 |
| 20260506143503 | 56 | 152 | 3.0 | 4.0 | 0.00 | 0.00 | 0.00 | 27 | 1010.5 |
| 20260506143003 | 56 | 161 | 2.0 | 4.0 | 0.00 | 0.00 | 0.00 | 26 | 1010.6 |
| 20260506142714 | 56 | 162 | 2.0 | 6.0 | 0.00 | 0.00 | 0.00 | 25 | 1010.7 |
| 20260506142003 | 57 | 192 | 4.0 | 6.0 | 0.00 | 0.00 | 0.00 | 25 | 1010.7 |
| 20260506141503 | 58 | 201 | 3.0 | 7.0 | 0.00 | 0.00 | 0.00 | 25 | 1010.7 |
| 20260506141003 | 58 | 197 | 3.0 | 7.0 | 0.00 | 0.00 | 0.00 | 25 | 1010.8 |
| 20260506140503 | 59 | 191 | 3.0 | 8.0 | 0.00 | 0.00 | 0.00 | 25 | 1010.7 |
| 20260506140003 | 59 | 174 | 2.0 | 8.0 | 0.00 | 0.00 | 0.00 | 24 | 1010.6 |
| 20260506135503 | 59 | 186 | 2.0 | 6.0 | 0.00 | 0.00 | 0.00 | 24 | 1010.7 |
| 20260506135003 | 58 | 2 | 4.0 | 10.0 | 0.00 | 0.00 | 0.00 | 25 | 1010.7 |
| 20260506134503 | 56 | 26 | 3.0 | 10.0 | 0.00 | 0.00 | 0.00 | 24 | 1010.6 |
| 20260506134212 | 58 | 158 | 3.0 | 10.0 | 0.00 | 0.00 | 0.00 | 23 | 1010.6 |
| 20260506133503 | 57 | 208 | 3.0 | 7.0 | 0.00 | 0.00 | 0.00 | 23 | 1010.7 |
| 20260506133003 | 57 | 212 | 4.0 | 7.0 | 0.00 | 0.00 | 0.00 | 24 | 1010.7 |
| 20260506132503 | 56 | 244 | 4.0 | 6.0 | 0.00 | 0.00 | 0.00 | 24 | 1010.8 |
| 20260506132003 | 55 | 282 | 3.0 | 5.0 | 0.00 | 0.00 | 0.00 | 23 | 1010.6 |
| 20260506131503 | 57 | 181 | 3.0 | 8.0 | 0.00 | 0.00 | 0.00 | 22 | 1010.9 |
| 20260506131212 | 57 | 166 | 3.0 | 8.0 | 0.00 | 0.00 | 0.00 | 22 | 1010.9 |
| 20260506130503 | 56 | 147 | 2.0 | 8.0 | 0.00 | 0.00 | 0.00 | 24 | 1010.9 |
| 20260506130003 | 55 | 308 | 2.0 | 6.0 | 0.00 | 0.00 | 0.00 | 26 | 1010.9 |
| 20260506125503 | 54 | 287 | 2.0 | 6.0 | 0.00 | 0.00 | 0.00 | 24 | 1011.0 |
| 20260506125003 | 56 | 262 | 2.0 | 7.0 | 0.00 | 0.00 | 0.00 | 24 | 1011.0 |
| 20260506124503 | 56 | 228 | 3.0 | 8.0 | 0.00 | 0.00 | 0.00 | 24 | 1011.0 |
| 20260506124003 | 56 | 194 | 3.0 | 8.0 | 0.00 | 0.00 | 0.00 | 24 | 1010.9 |
| 20260506123503 | 56 | 136 | 5.0 | 10.0 | 0.00 | 0.00 | 0.00 | 25 | 1011.1 |
| 20260506123003 | 55 | 123 | 6.0 | 11.0 | 0.00 | 0.00 | 0.00 | 26 | 1011.1 |
| 20260506122503 | 55 | 127 | 5.0 | 11.0 | 0.00 | 0.00 | 0.00 | 25 | 1011.2 |
| 20260506122003 | 56 | 127 | 4.0 | 11.0 | 0.00 | 0.00 | 0.00 | 24 | 1011.1 |
| 20260506121503 | 55 | 225 | 3.0 | 6.0 | 0.00 | 0.00 | 0.00 | 24 | 1011.2 |
| 20260506121003 | 54 | 264 | 3.0 | 7.0 | 0.00 | 0.00 | 0.00 | 24 | 1011.3 |
| 20260506120503 | 54 | 211 | 3.0 | 7.0 | 0.00 | 0.00 | 0.00 | 24 | 1011.3 |
| 20260506120003 | 56 | 158 | 3.0 | 7.0 | 0.00 | 0.00 | 0.00 | 23 | 1011.2 |
| 20260506115503 | 56 | 146 | 3.0 | 9.0 | 0.00 | 0.00 | 0.00 | 23 | 1011.4 |
| 20260506115003 | 55 | 99 | 3.0 | 10.0 | 0.00 | 0.00 | 0.00 | 25 | 1011.3 |
| 20260506114503 | 55 | 92 | 4.0 | 10.0 | 0.00 | 0.00 | 0.00 | 25 | 1011.4 |
| 20260506114003 | 54 | 115 | 3.0 | 6.0 | 0.00 | 0.00 | 0.00 | 25 | 1011.4 |
| 20260506113503 | 55 | 328 | 2.0 | 6.0 | 0.00 | 0.00 | 0.00 | 24 | 1011.3 |
| 20260506113003 | 54 | 109 | 3.0 | 11.0 | 0.00 | 0.00 | 0.00 | 25 | 1011.6 |
| 20260506112503 | 54 | 126 | 5.0 | 12.0 | 0.00 | 0.00 | 0.00 | 25 | 1011.6 |
| 20260506112003 | 54 | 117 | 4.0 | 12.0 | 0.00 | 0.00 | 0.00 | 25 | 1011.6 |
| 20260506111503 | 53 | 81 | 4.0 | 9.0 | 0.00 | 0.00 | 0.00 | 27 | 1011.6 |
| 20260506111003 | 53 | 86 | 4.0 | 9.0 | 0.00 | 0.00 | 0.00 | 26 | 1011.8 |
| 20260506110712 | 53 | 96 | 5.0 | 11.0 | 0.00 | 0.00 | 0.00 | 25 | 1011.7 |
| 20260506110213 | 54 | 119 | 3.0 | 11.0 | 0.00 | 0.00 | 0.00 | 24 | 1011.6 |
| 20260506105503 | 53 | 114 | 3.0 | 8.0 | 0.00 | 0.00 | 0.00 | 24 | 1011.7 |
| 20260506105003 | 54 | 99 | 3.0 | 8.0 | 0.00 | 0.00 | 0.00 | 24 | 1011.6 |
| 20260506104712 | 53 | 3 | 3.0 | 7.0 | 0.00 | 0.00 | 0.00 | 24 | 1011.8 |
| 20260506104004 | 53 | 25 | 3.0 | 7.0 | 0.00 | 0.00 | 0.00 | 25 | 1011.7 |
| 20260506103712 | 53 | 87 | 3.0 | 6.0 | 0.00 | 0.00 | 0.00 | 25 | 1011.8 |
| 20260506103003 | 53 | 180 | 4.0 | 9.0 | 0.00 | 0.00 | 0.00 | 24 | 1011.8 |
| 20260506102503 | 53 | 168 | 4.0 | 12.0 | 0.00 | 0.00 | 0.00 | 25 | 1012.0 |
| 20260506102003 | 53 | 153 | 4.0 | 12.0 | 0.00 | 0.00 | 0.00 | 26 | 1011.9 |
| 20260506101503 | 53 | 145 | 4.0 | 12.0 | 0.00 | 0.00 | 0.00 | 26 | 1012.1 |
| 20260506101213 | 53 | 137 | 3.0 | 9.0 | 0.00 | 0.00 | 0.00 | 24 | 1012.1 |
| 20260506100503 | 53 | 131 | 4.0 | 10.0 | 0.00 | 0.00 | 0.00 | 26 | 1012.2 |
| 20260506100213 | 53 | 137 | 4.0 | 10.0 | 0.00 | 0.00 | 0.00 | 26 | 1012.1 |
| 20260506095503 | 52 | 142 | 4.0 | 10.0 | 0.00 | 0.00 | 0.00 | 25 | 1012.3 |
| 20260506095003 | 52 | 184 | 3.0 | 10.0 | 0.00 | 0.00 | 0.00 | 24 | 1012.1 |
| 20260506094503 | 51 | 165 | 4.0 | 11.0 | 0.00 | 0.00 | 0.00 | 26 | 1012.1 |
| 20260506094003 | 51 | 153 | 6.0 | 12.0 | 0.00 | 0.00 | 0.00 | 26 | 1012.3 |
| 20260506093503 | 51 | 164 | 5.0 | 12.0 | 0.00 | 0.00 | 0.00 | 26 | 1012.4 |
| 20260506093003 | 51 | 191 | 3.0 | 7.0 | 0.00 | 0.00 | 0.00 | 26 | 1012.3 |
| 20260506092503 | 51 | 143 | 3.0 | 11.0 | 0.00 | 0.00 | 0.00 | 26 | 1012.5 |
| 20260506092213 | 51 | 119 | 4.0 | 11.0 | 0.00 | 0.00 | 0.00 | 25 | 1012.4 |
| 20260506091714 | 51 | 119 | 4.0 | 11.0 | 0.00 | 0.00 | 0.00 | 25 | 1012.5 |
| 20260506091003 | 51 | 103 | 3.0 | 11.0 | 0.00 | 0.00 | 0.00 | 25 | 1012.5 |
| 20260506090503 | 50 | 93 | 4.0 | 11.0 | 0.00 | 0.00 | 0.00 | 25 | 1012.4 |
| 20260506090003 | 50 | 90 | 4.0 | 8.0 | 0.00 | 0.00 | 0.00 | 25 | 1012.4 |
| 20260506085503 | 50 | 82 | 4.0 | 9.0 | 0.00 | 0.00 | 0.00 | 23 | 1012.3 |
| 20260506085003 | 50 | 99 | 4.0 | 10.0 | 0.00 | 0.00 | 0.00 | 24 | 1012.6 |
| 20260506084503 | 50 | 98 | 4.0 | 10.0 | 0.00 | 0.00 | 0.00 | 24 | 1012.6 |
| 20260506084004 | 51 | 95 | 4.0 | 9.0 | 0.00 | 0.00 | 0.00 | 25 | 1012.6 |
| 20260506083503 | 49 | 98 | 4.0 | 9.0 | 0.00 | 0.00 | 0.00 | 26 | 1012.5 |
| 20260506083003 | 49 | 111 | 6.0 | 11.0 | 0.00 | 0.00 | 0.00 | 25 | 1012.7 |
| 20260506082503 | 49 | 109 | 7.0 | 11.0 | 0.00 | 0.00 | 0.00 | 25 | 1012.7 |
| 20260506082003 | 49 | 108 | 5.0 | 10.0 | 0.00 | 0.00 | 0.00 | 26 | 1012.8 |
| 20260506081503 | 49 | 101 | 4.0 | 11.0 | 0.00 | 0.00 | 0.00 | 27 | 1012.8 |
| 20260506081003 | 49 | 67 | 4.0 | 11.0 | 0.00 | 0.00 | 0.00 | 27 | 1012.9 |
| 20260506080503 | 49 | 75 | 5.0 | 11.0 | 0.00 | 0.00 | 0.00 | 28 | 1012.7 |
| 20260506080212 | 48 | 96 | 5.0 | 10.0 | 0.00 | 0.00 | 0.00 | 29 | 1012.8 |
| 20260506073214 | 49 | 112 | 4.0 | 11.0 | 0.00 | 0.00 | 0.00 | 26 | 1013.0 |
| 20260506072503 | 48 | 96 | 5.0 | 11.0 | 0.00 | 0.00 | 0.00 | 26 | 1012.9 |
| 20260506072003 | 48 | 101 | 6.0 | 11.0 | 0.00 | 0.00 | 0.00 | 26 | 1012.9 |
| 20260506071713 | 48 | 83 | 5.0 | 11.0 | 0.00 | 0.00 | 0.00 | 26 | 1012.7 |
| 20260506071003 | 48 | 21 | 4.0 | 10.0 | 0.00 | 0.00 | 0.00 | 27 | 1012.7 |
| 20260506070503 | 48 | 46 | 4.0 | 9.0 | 0.00 | 0.00 | 0.00 | 29 | 1012.7 |
| 20260506062503 | 46 | 47 | 3.0 | 8.0 | 0.00 | 0.00 | 0.00 | 36 | 1012.7 |
| 20260506062003 | 46 | 31 | 3.0 | 9.0 | 0.00 | 0.00 | 0.00 | 37 | 1012.7 |
| 20260506061713 | 46 | 21 | 4.0 | 9.0 | 0.00 | 0.00 | 0.00 | 37 | 1012.8 |
| 20260506061003 | 45 | 35 | 3.0 | 9.0 | 0.00 | 0.00 | 0.00 | 38 | 1012.7 |
| 20260506060503 | 45 | 39 | 3.0 | 8.0 | 0.00 | 0.00 | 0.00 | 40 | 1012.8 |
| 20260506051003 | 34 | 49 | 0.0 | 2.0 | 0.00 | 0.00 | 0.00 | 74 | 1012.9 |
| 20260506050503 | 33 | 56 | 0.0 | 2.0 | 0.00 | 0.00 | 0.00 | 76 | 1012.9 |
| 20260506045003 | 32 | 60 | 0.0 | 2.0 | 0.00 | 0.00 | 0.00 | 75 | 1012.7 |
| 20260506044714 | 31 | 52 | 1.0 | 2.0 | 0.00 | 0.00 | 0.00 | 76 | 1012.9 |